SL-14 R/B

Satellite information

Favourite Embed

Satellite Type and Status

ROCKET BODYIN ORBIT

Key statistics

Satellite SL-14 R/B at a glance.

Uptime

15514

Days in orbit

Revolutions

≈ 14.9

Per day

Orbit

LEO

Low Earth Orbit

Inclination

82.5

Latest

Satellite identification and parameters

Extended collection of information and parameters for SL-14 R/B.

Object identification

Identified? True

Debris? False

Object name: SL-14 R/B

International designator: 1983-061B

Object number (NORAD): 14148

Object ID (CCSDS): 14148

Country: COMMONWEALTH OF INDEPENDENT STATES (CIS)

Current information (Y/N): Y

RCS size: LARGE

Orbital parameters

Period: 96.933 minutes

Inclination: 82.5187 deg

SMA: 6989.952 km

Apoapsis: 626.157 km

Periapsis: 597.477 km

RAAN: 243.5811 deg

Eccentricy: 0.00205157

Argument of periapsis: 182.267 deg

Mean anomaly: 177.8457 deg

Mean motion: 14.85564346 rev/day

Mean motion (dot): 0.00000751 rev/day2

B* drag term: 0.000083776199 1/REarth

Two-line elements (TLE)

Creation date: Dec. 12, 2025, 10:14 a.m.

Reference frame: TEME

Reference center: EARTH

Epoch: Dec. 12, 2025, 4:37 a.m. UTC

TLE line 0: 0 SL-14 R/B

TLE line 1: 1 14148U 83061B 25346.19303643 .00000751 00000-0 83776-4 0 9993

TLE line 2: 2 14148 82.5187 243.5811 0020516 182.2670 177.8457 14.85564346273406

Live tracking on map

Real-time ground track for satellite SL-14 R/B.

In-orbit conjunctions

A list of the most updated potential collisions computed for object SL-14 R/B.

Target Orbit TCA Probability of collision Miss distance Type
DELTA 1 DEB SSO 2025-10-24 23:30:37 0.0009623437 182.0 (m) DEBRIS
COSMOS 2251 DEB LEO 2025-08-09 19:09:17 0.0004419091 27.0 (m) DEBRIS
COSMOS 2251 DEB LEO 2025-07-25 12:13:05 0.0003142861 82.0 (m) DEBRIS
CZ-6A DEB SSO 2025-06-25 05:02:28 0.0006285918 117.0 (m) DEBRIS
OBJECT H SSO 2024-10-14 12:23:29 0.00476027 204.0 (m) UNKNOWN

Associated space launch

There is no information available about the launch of this satellite, yet. Check back as we update our databases every day.

Latest news about this satellite

There are no fresh news available about this satellite. Check back as we update our databases every day.


Newsletter sign-up

Weekly statistics, charts and insights to help you stay on top of the space industry.